Regional Weather Roundup
Issued by NWS

Home | Current Version | Previous Version | Text Only | Print | Product List | Glossary Off
Versions: 1 2 3 4 5 6 7 8 9 10 11 12 13 14 15 16 17 18 19 20 21 22 23 24 25 26 27 28 29 30 31 32 33 34 35 36 37 38 39 40 41 42 43 44 45 46 47 48 49 50

198
ASUS45 KPSR 261310
RWRAZ

ARIZONA HOURLY REGIONAL WEATHER ROUNDUP
NATIONAL WEATHER SERVICE PHOENIX AZ
600 AM MST FRI AUG 26 2016

NOTE: FAIR INDICATES FEW OR NO CLOUDS BELOW 12,000 FEET WITH NO
SIGNIFICANT WEATHER AND/OR OBSTRUCTIONS TO VISIBILITY.

AZZ001>003-036-261400-
NORTHWEST ARIZONA

CITY           SKY/WX    TMP DP  RH WIND       PRES   REMARKS
BULLHEAD CITY  CLEAR     84  48  28 SE6       29.83R
KINGMAN        CLEAR     71  32  23 SE18      30.03R
$$

AZZ004>008-015-016-018-261400-
NORTH CENTRAL ARIZONA

CITY           SKY/WX    TMP DP  RH WIND       PRES   REMARKS
GRAND CANYON     N/A    N/A N/A N/A MISG      30.30R
PRESCOTT       PTCLDY    55  55 100 CALM      30.19R
FLAGSTAFF      CLOUDY    50  49  96 E7        30.30F
PAYSON         DRIZZLE   57  54  88 E9        30.27R
PAGE           PTCLDY    60  55  83 S5        30.15R
$$

AZZ009>014-017-261400-
NORTHEAST ARIZONA

CITY           SKY/WX    TMP DP  RH WIND       PRES   REMARKS
WINSLOW        LGT RAIN  58  56  93 CALM      30.26R
SAINT JOHNS    CLOUDY    55  51  86 W8        30.28R
WINDOW ROCK    MOCLDY    47  44  90 S3        30.31R
SHOW LOW       MOCLDY    50  48  93 E5        30.31R
$$

AZZ023-261400-
GREATER PHOENIX AREA

CITY           SKY/WX    TMP DP  RH WIND       PRES   REMARKS
PHOENIX        MOCLDY    81  58  45 NE12      29.92R
BUCKEYE        MOCLDY    82  55  39 NE12G18   29.92R
GLENDALE       MOCLDY    79  63  57 N9        29.95
LUKE AFB       PTCLDY    80  60  50 NE5       29.93R
DEER VALLEY    MOCLDY    75  62  64 SW7       29.97R THUNDER
SCOTTSDALE     CLOUDY    79  57  46 N10G20    29.96R
MESA-FALCON    CLOUDY   N/A N/A N/A N10       29.91
MESA-GATEWAY   CLOUDY    79  61  53 NE10      29.94R
CHANDLER       MOCLDY    79  59  50 N12       29.92
$$

AZZ027-028-261400-
SOUTHWEST MARICOPA COUNTY AND PINAL COUNTY

CITY           SKY/WX    TMP DP  RH WIND       PRES   REMARKS
CASA GRANDE    MOCLDY    81  63  54 S10       29.95R
GILA BEND      MOCLDY    84  57  39 E5        29.89R
$$

AZZ503-504-507>509-261400-
SOUTHEAST ARIZONA

CITY           SKY/WX    TMP DP  RH WIND       PRES   REMARKS
TUCSON         PTCLDY    77  59  53 S9        30.03R
DAVIS-MONTHAN  MOCLDY    75  59  57 SE6       30.02R
RYAN FIELD     MOCLDY    79  61  53 CALM      30.01
NOGALES        PTCLDY    62  57  83 CALM      30.11R
SIERRA VISTA   CLEAR     65  54  66 CALM      30.15R
DOUGLAS        CLEAR     62  57  83 CALM      30.13R
SAFFORD        MOCLDY    69  61  75 NW8       30.03S
$$

AZZ020-021-025-026-031-261400-
SOUTHWEST ARIZONA

CITY           SKY/WX    TMP DP  RH WIND       PRES   REMARKS
YUMA           PTCLDY    82  74  76 E5        29.81R
$$

CAZ031-033-041-043-047-048-061-261400-
SOUTHERN CALIFORNIA

CITY           SKY/WX    TMP DP  RH WIND       PRES   REMARKS
DOWNTOWN L.A.  CLOUDY    66  57  72 CALM      29.93R
L.A. AIRPORT   MOCLDY    66  56  70 SE5       29.93R
SAN DIEGO      MOCLDY    66  59  78 SE5       29.95R
BURBANK        CLOUDY    65  58  78 S5        29.93R
ONTARIO        MOCLDY    63  57  81 S7        29.94R
RIVERSIDE      CLOUDY    63  57  81 W3        29.94R
PALM SPRINGS   PTCLDY    77  46  33 S3        29.84R
EL CENTRO NAS  PTCLDY    77  71  82 E6        29.80R
IMPERIAL       CLEAR     82  73  74 E6        29.78R
BLYTHE         CLEAR     82  71  69 S7        29.82R
NEEDLES        CLEAR     85  47  26 SW7       29.84R
$$

NVZ020-UTZ003-261400-
SOUTHERN NEVADA-UTAH

CITY           SKY/WX    TMP DP  RH WIND       PRES   REMARKS
LAS VEGAS      PTCLDY    79  47  32 CALM      29.90R
SALT LAKE CITY PTCLDY    65  38  36 SE10      30.03R
$$

NMZ009-TXZ055-261400-
NEW MEXICO-WEST TEXAS

CITY           SKY/WX    TMP DP  RH WIND       PRES   REMARKS
ALBUQUERQUE    CLOUDY    60  55  83 N10       30.23R
EL PASO        PTCLDY    66  58  75 NE3       30.12R
$$


........................KEY........................
SKY/WX - SKY CONDITION/WEATHER
TMP    - TEMPERATURE IN FAHRENHEIT
DP     - DEW POINT IN FAHRENHEIT
RH     - RELATIVE HUMIDITY IN PERCENT
WIND   - DIRECTION AND SPEED IN MILES PER HOUR (MPH)
VRB    - VARIABLE WIND DIRECTION
PRES   - MEAN SEA LEVEL PRESSURE IN INCHES OF MERCURY
         F - FALLING PRESSURE   R - RISING PRESSURE
         S - STEADY PRESSURE
VSB    - VISIBILITY IN MILES
HX     - HEAT INDEX IN FAHRENHEIT
WCI    - WIND CHILL INDEX IN FAHRENHEIT
TC     - TEMPERATURE IN CELSIUS WHICH IS ALSO KNOWN AS
         TEMPERATURE IN CENTIGRADE
AFB    - AIR FORCE BASE
         LUKE AFB IS LUKE AIR FORCE BASE
         DAVIS-MONTHAN IS DAVIS-MONTHAN AIR FORCE BASE
NAS    - NAVAL AIR STATION
         EL CENTRO NAS IS EL CENTRO NAVAL AIR STATION
N/A    - NOT AVAILABLE





USA.gov is the U.S. government's official web portal to all federal, state and local government web resources and services.